Location: Castillon
(43.0896°N, 0.2156°E)
Time: 11:24:13
(UTC+00:00)

Cosmos 1544 Rocket - Pass Details

Date: 27 October 2021
Orbit: 603 x 631 km, 82.5° (Epoch: 08 December)

Event Time Altitude Azimuth Distance (km) Brightness Sun altitude
Rises 04:00:00 0° 3° (N) 2,904 7.1 -27.5°
Reaches altitude 10° 04:02:33 10° 16° (NNE) 1,988 6.4 -27.0°
Maximum altitude 04:06:16 26° 73° (ENE) 1,210 5.7 -26.3°
Drops below altitude 10° 04:09:56 10° 131° (SE) 1,961 6.6 -25.7°
Sets 04:12:25 0° 144° (SE) 2,855 7.4 -25.2°
